Location: Franzen
(48.6167°N, 15.3833°E)
Time: 07:18:13
(UTC+00:00)

ARIANE 5 R/B - Pass Details

Date: 02 August 2021
Orbit: 620 x 656 km, 98.1° (Epoch: 11 September)

Event Time Altitude Azimuth Distance (km) Brightness Sun altitude
Exits shadow 20:22:11 21° 166° (SSE) 1,453 3.9 -14.6°
Maximum altitude 20:25:10 88° 258° (WSW) 651 2.6 -14.9°
Drops below altitude 10° 20:29:38 10° 346° (NNW) 2,039 6.3 -15.4°
Sets 20:31:50 0° 346° (NNW) 2,947 7.3 -15.6°
